Tindouf, Algeria

2:19 PM CET en Julio 21, 2018 (GMT +0100)
Tindouf

Tiempo Historia de 60656 - Abril, 2018

Change the Weather History Date:

Martes, Abril 17, 2018

  Actual Average Record
Temperature  
Temperatura media 75 ° F -  
Temperatura máxima 90 ° F - - ()
Temperatura mínima 60 ° F - - ()
Cooling Degree Days 10    
Growing Degree Days 25 (Base 50)    
Moisture  
Punto de rocío 22 ° F    
Average Humidity 11    
Maximum Humidity 23    
Minimum Humidity 4    
Precipitación  
Precipitación 0.00 pul - - ()
Presión al nivel del mar  
Presión al nivel del mar 30.04 pul    
Viento  
Velocidad del viento 4 mph ()    
Velocidad máxima del viento 8 mph    
Max Gust Speed -    
Visibilidad 5.0 Millas    
Eventos      
T = Trace of Precipitation, MM = Missing Value Source: Averaged Metar Reports

Daily Weather History Graph

Daily Weather History Graph

Search for Another Location

Airport or City:

Astronomía

Apr. 17, 2018 Salida Puesta
Hora real 7:06 AM CET 7:58 PM CET
Crepúsculo civil 6:42 AM CET 8:22 PM CET
Crepúsculo náutico 6:13 AM CET 8:50 PM CET
Crepúsculo astronómico 5:44 AM CET 9:20 PM CET
Luna 8:17 AM CET (4/17) 9:35 PM CET (4/17)
Horas de luz 13h 40m
Horas de luz
12h 52m
Luna nueva, 2% of the Moon is Illuminated
Abr 17
Luna nueva
Abr 22
Cuarto creciente
Abr 30
Luna llena
May 8
Cuarto menguante
May 15
Nueva

Hourly Weather History & Observations

Hora (CET) Temp. Punto de rocío Humedad Presión Visibilidad Wind Dir Velocidad del viento Velocidad de ráfagas Precip Eventos Condiciones
12:00 AM 73.4 ° F 19.4 ° F 13% 30.06 pul 5.0 mi Este 3.5 mph - N/A   Desconocido
1:00 AM 72 ° F 20 ° F 7% 30.00 pul 5 mi ESE 5.8 mph - -  
1:00 AM 71.6 ° F 21.2 ° F 15% 30.06 pul 5.0 mi ESE 5.8 mph - N/A   Desconocido
2:00 AM 69.8 ° F 21.2 ° F 16% 30.06 pul 5.0 mi SSE 4.6 mph - N/A   Desconocido
3:00 AM 68.0 ° F 19.4 ° F 16% 30.06 pul 5.0 mi SSE 5.8 mph - N/A   Desconocido
4:00 AM 67 ° F 20 ° F 8% 29.97 pul 5 mi Sur 6.9 mph - -  
4:00 AM 68.0 ° F 19.4 ° F 16% 30.04 pul 5.0 mi Sur 6.9 mph - N/A   Desconocido
5:00 AM 68.0 ° F 19.4 ° F 16% 30.04 pul 5.0 mi SSE 4.6 mph - N/A   Desconocido
6:00 AM 64.4 ° F 21.2 ° F 19% 30.04 pul 5.0 mi SSE 3.5 mph - N/A   Desconocido
7:00 AM 61 ° F 23 ° F 13% 30.01 pul 6 mi Sin viento Sin viento - -   Despejado
8:00 AM 60.8 ° F 23.0 ° F 23% 30.09 pul - Sin viento Sin viento - N/A   Despejado
9:00 AM 69.8 ° F 19.4 ° F 15% 30.09 pul 5.0 mi ENE 2.3 mph - N/A   Desconocido
10:00 AM 76 ° F 20 ° F 5% 30.05 pul 5 mi NNO 3.5 mph - -   Despejado
10:00 AM 75.2 ° F 19.4 ° F 12% 30.12 pul 5.0 mi NNO 3.5 mph - N/A   Desconocido
11:00 AM 82.4 ° F 21.2 ° F 10% 30.12 pul 5.0 mi Este 2.3 mph - N/A   Desconocido
12:00 PM 84.2 ° F 23.0 ° F 11% 30.12 pul 5.0 mi SE 4.6 mph - N/A   Desconocido
1:00 PM 87 ° F 22 ° F 4% 30.04 pul 5 mi Sur 4.6 mph - -   Despejado
1:00 PM 87.8 ° F 23.0 ° F 9% 30.09 pul 5.0 mi Sur 4.6 mph - N/A   Desconocido
2:00 PM 89.6 ° F 23.0 ° F 9% 30.06 pul 5.0 mi Norte 2.3 mph - N/A   Desconocido
3:00 PM 91.4 ° F 24.8 ° F 9% 30.06 pul 5.0 mi SSO 3.5 mph - N/A   Desconocido
4:00 PM 91 ° F 24 ° F 4% 29.96 pul 5 mi NO 8.1 mph - -   Despejado
4:00 PM 91.4 ° F 24.8 ° F 9% 30.04 pul 5.0 mi NO 8.1 mph - N/A   Desconocido
5:00 PM 89.6 ° F 24.8 ° F 10% 30.01 pul 5.0 mi Norte 4.6 mph - N/A   Desconocido
6:00 PM 89.6 ° F 23.0 ° F 9% 30.01 pul 5.0 mi Sur 6.9 mph - N/A   Desconocido
7:00 PM 89 ° F 23 ° F 4% 29.95 pul 5 mi ESE 4.6 mph - -   Despejado
8:00 PM 87.8 ° F 21.2 ° F 9% 30.01 pul 5.0 mi SSE 3.5 mph - N/A   Desconocido
9:00 PM 82.4 ° F 21.2 ° F 10% 30.04 pul 5.0 mi Sin viento Sin viento - N/A   Desconocido
10:00 PM 82 ° F 21 ° F 5% 29.98 pul 5 mi NE 4.6 mph - -  
10:00 PM 82.4 ° F 21.2 ° F 10% 30.04 pul 5.0 mi NE 4.6 mph - N/A   Desconocido
11:00 PM 77.0 ° F 19.4 ° F 12% 30.06 pul - Sin viento Sin viento - N/A   Despejado